Latest Weather Observations for Melbourne Airport

IDV60901

Issued at 11:31 am EST Thursday 29 September 2016 (issued every 10 minutes, with the page automatically refreshed every 10 minutes)

About weather observations | Map of Melbourne area stations | Latest observations for Melbourne area | Other Formats
Station Details ID: 086282 Name: MELBOURNE AIRPORT Lat: -37.67 Lon: 144.83 Height: 113.4 m
Data from the previous 72 hours. | See also: Recent months at Melbourne Airport
Date/Time
EST
Temp
°C
App
Temp
°C
Dew
Point
°C
Rel
Hum
%
Delta-T
°C
Wind Press
QNH
hPa
Press
MSL
hPa
Rain since
9am
mm
Dir  Spd
km/h
Gust
km/h
Spd
kts
Gust
kts
29/11:00am 14.2 5.7 3.0 47 5.1 N 37 52 20 28 989.9 989.9 0.0
29/10:30am 13.8 6.4 4.1 52 4.5 NNW 32 44 17 24 989.7 989.7 0.0
29/10:00am 12.9 8.2 6.0 63 3.3 NNW 20 32 11 17 989.9 989.9 0.0
29/09:31am 11.2 4.7 4.7 64 3.0 NW 28 46 15 25 989.7 989.7 0.0
29/09:30am 11.3 4.3 4.3 62 3.2 NW 30 46 16 25 989.8 989.8 0.0
29/09:00am 12.4 7.4 6.4 67 2.9 NW 22 37 12 20 989.7 989.7 4.4
29/08:30am 12.5 8.7 7.4 71 2.5 NNW 17 24 9 13 989.7 989.7 4.4
29/08:00am 12.0 7.6 6.4 68 2.7 NNW 19 32 10 17 989.4 989.4 4.4
29/07:30am 12.0 8.3 7.8 75 2.1 NNW 17 26 9 14 989.5 989.5 4.4
29/07:00am 12.1 7.7 9.0 81 1.6 N 22 30 12 16 988.6 988.6 4.4
29/06:30am 12.5 7.4 9.2 80 1.7 N 26 39 14 21 988.2 988.2 4.4
29/06:00am 12.8 6.8 10.1 84 1.4 N 32 41 17 22 987.7 987.7 4.4
29/05:31am 12.7 6.2 10.4 86 1.2 NNE 35 54 19 29 988.0 988.0 4.4
29/05:30am 12.6 5.8 10.7 88 1.0 NNE 37 54 20 29 987.9 987.9 4.4
29/05:23am 12.6 6.2 10.7 88 1.0 NNE 35 54 19 29 987.9 987.9 4.2
29/05:00am 13.0 6.5 10.3 84 1.4 N 35 48 19 26 988.3 988.3 4.2
29/04:30am 13.0 4.8 10.3 84 1.4 NNE 44 54 24 29 988.0 988.0 4.2
29/04:01am 13.0 5.0 10.5 85 1.3 NNE 43 61 23 33 988.0 988.0 4.2
29/04:00am 12.9 4.9 10.6 86 1.2 NNE 43 59 23 32 988.0 988.0 4.2
29/03:47am 13.2 5.2 10.6 84 1.4 NNE 43 61 23 33 988.5 988.5 4.2
29/03:30am 12.9 6.0 10.4 85 1.3 NNE 37 50 20 27 988.5 988.5 4.2
29/03:26am 12.7 5.9 10.6 87 1.1 NNE 37 48 20 26 988.6 988.6 4.2
29/03:13am 12.4 5.3 10.9 90 0.8 NNE 39 56 21 30 988.5 988.5 4.0
29/03:00am 12.7 6.3 10.6 87 1.1 NNE 35 52 19 28 989.0 989.0 4.0
29/02:42am 12.9 4.3 10.4 85 1.3 NNE 46 65 25 35 989.5 989.5 3.8
29/02:30am 13.0 3.3 10.3 84 1.4 NNE 52 67 28 36 989.9 989.9 3.8
29/02:00am 13.0 3.3 10.3 84 1.4 NNE 52 72 28 39 990.3 990.3 3.2
29/01:51am 12.8 3.8 10.3 85 1.3 NNE 48 76 26 41 990.8 990.8 3.0
29/01:35am 12.7 5.0 10.0 84 1.4 NNE 41 59 22 32 991.5 991.5 2.6
29/01:30am 12.6 5.3 10.1 85 1.3 NNE 39 54 21 29 991.8 991.7 2.6
29/01:19am 12.7 7.3 9.6 81 1.6 NNE 28 48 15 26 992.3 992.2 2.2
29/01:00am 12.5 7.1 9.6 82 1.5 NNE 28 37 15 20 992.9 992.9 2.0
29/12:30am 12.6 7.9 9.3 80 1.7 NE 24 33 13 18 993.1 993.1 1.8
29/12:00am 12.6 7.3 9.7 82 1.5 NE 28 37 15 20 994.3 994.3 1.6
 
Date/Time
EST
Temp
°C
App
Temp
°C
Dew
Point
°C
Rel
Hum
%
Delta-T
°C
Wind Press
QNH
hPa
Press
MSL
hPa
Rain since
9am
mm
Dir  Spd
km/h
Gust
km/h
Spd
kts
Gust
kts
28/11:36pm 14.1 7.5 7.9 66 3.1 NE 32 50 17 27 995.4 995.4 0.2
28/11:30pm 14.6 8.0 7.6 63 3.5 NE 32 43 17 23 995.5 995.5 0.2
28/11:00pm 15.0 7.2 6.5 57 4.2 NNE 37 50 20 27 995.8 995.8 0.2
28/10:54pm 15.1 6.5 6.6 57 4.2 NNE 41 59 22 32 995.5 995.5 0.2
28/10:30pm 15.0 6.4 6.5 57 4.1 NNE 41 54 22 29 996.4 996.4 0.2
28/10:18pm 15.0 7.2 6.5 57 4.1 NNE 37 56 20 30 997.1 997.1 0.2
28/10:00pm 14.9 6.3 6.6 57 4.1 NNE 41 56 22 30 997.6 997.6 0.2
28/09:51pm 14.7 7.3 6.6 58 4.0 NNE 35 56 19 30 997.7 997.7 0.2
28/09:30pm 14.4 7.0 6.9 60 3.7 NNE 35 48 19 26 997.7 997.7 0.2
28/09:00pm 14.5 7.1 6.8 60 3.8 NNE 35 52 19 28 998.7 998.7 0.2
28/08:53pm 14.4 7.6 6.9 60 3.7 NNE 32 52 17 28 998.7 998.7 0.2
28/08:30pm 14.4 8.4 6.9 60 3.7 NNE 28 35 15 19 999.2 999.2 0.2
28/08:00pm 14.4 8.0 7.1 61 3.6 NNE 30 39 16 21 999.9 1000.0 0.2
28/07:30pm 14.2 7.8 7.1 62 3.5 NE 30 48 16 26 999.6 999.7 0.2
28/07:27pm 14.4 8.4 6.9 60 3.7 NE 28 48 15 26 999.9 1000.0 0.2
28/07:00pm 14.2 9.3 7.1 62 3.5 NE 22 30 12 16 1000.6 1000.6 0.2
28/06:30pm 14.3 9.5 7.2 62 3.5 NE 22 35 12 19 1001.4 1001.4 0.2
28/06:00pm 14.6 7.2 6.9 60 3.8 NNE 35 46 19 25 1001.5 1001.5 0.2
28/05:30pm 14.8 8.0 6.9 59 3.9 NNE 32 43 17 23 1001.8 1001.8 0.2
28/05:15pm 15.0 8.3 7.2 59 3.9 NNE 32 50 17 27 1002.1 1002.1 0.2
28/05:00pm 15.2 8.2 6.7 57 4.2 NNE 33 44 18 24 1002.2 1002.2 0.2
28/04:30pm 15.4 7.5 6.4 55 4.4 NNE 37 50 20 27 1003.0 1003.0 0.2
28/04:00pm 15.6 8.1 6.2 53 4.6 N 35 44 19 24 1003.2 1003.2 0.2
28/03:30pm 16.4 9.1 7.0 53 4.7 N 35 44 19 24 1003.3 1003.3 0.2
28/03:00pm 16.6 9.6 6.8 52 4.9 N 33 48 18 26 1003.8 1003.8 0.2
28/02:30pm 16.6 8.0 6.3 50 5.1 N 41 56 22 30 1004.5 1004.5 0.2
28/02:26pm 16.6 8.7 6.3 50 5.1 NNE 37 56 20 30 1004.6 1004.6 0.2
28/02:00pm 17.0 8.0 6.3 49 5.3 NNE 43 59 23 32 1005.2 1005.2 0.2
28/01:56pm 16.8 8.2 6.3 50 5.2 NNE 41 59 22 32 1005.3 1005.3 0.2
28/01:30pm 17.0 9.3 7.0 51 5.0 NNE 37 52 20 28 1006.6 1006.7 0.0
28/01:15pm 16.6 9.8 7.5 55 4.6 NNE 33 46 18 25 1006.6 1006.7 0.0
28/01:00pm 16.7 8.5 6.6 51 5.0 N 39 50 21 27 1007.2 1007.3 0.0
28/12:30pm 16.2 8.8 6.7 53 4.7 NNE 35 48 19 26 1008.3 1008.4 0.0
28/12:00pm 15.8 8.9 7.4 57 4.2 NNE 33 41 18 22 1009.3 1009.3 0.0
28/11:30am 15.7 8.9 7.5 58 4.1 N 33 46 18 25 1010.3 1010.3 0.0
28/11:00am 15.2 7.7 8.1 62 3.6 N 37 44 20 24 1010.9 1010.9 0.0
28/10:30am 14.4 7.7 8.0 65 3.2 N 33 43 18 23 1011.4 1011.4 0.0
28/10:00am 13.8 7.1 8.0 68 2.9 N 33 41 18 22 1012.0 1012.0 0.0
28/09:30am 13.0 6.4 7.7 70 2.6 N 32 37 17 20 1012.0 1012.0 0.0
28/09:00am 12.5 6.4 6.7 68 2.8 N 28 37 15 20 1012.3 1012.3 1.6
28/08:30am 11.6 5.9 6.6 71 2.4 N 26 32 14 17 1012.5 1012.5 1.6
28/08:00am 10.8 5.8 6.6 75 2.0 N 22 32 12 17 1012.8 1012.8 1.6
28/07:30am 10.3 5.8 6.9 79 1.6 N 20 26 11 14 1012.8 1012.8 1.6
28/07:00am 8.9 3.6 6.8 87 1.0 N 24 28 13 15 1012.9 1012.9 1.6
28/06:30am 8.3 2.6 6.8 90 0.7 N 26 32 14 17 1012.9 1012.9 1.6
28/06:00am 7.5 2.5 6.4 93 0.5 N 22 26 12 14 1012.7 1012.7 1.6
28/05:30am 7.2 1.8 6.3 94 0.4 N 24 28 13 15 1012.5 1012.5 1.6
28/05:00am 7.4 2.3 6.1 91 0.6 N 22 28 12 15 1012.5 1012.5 1.6
28/04:30am 7.7 2.9 5.5 86 1.0 N 20 26 11 14 1012.4 1012.4 1.6
28/04:00am 7.3 1.9 4.3 81 1.3 N 22 26 12 14 1012.5 1012.5 1.6
28/03:30am 7.3 1.9 4.3 81 1.3 N 22 26 12 14 1012.5 1012.5 1.6
28/03:00am 7.8 3.2 3.9 76 1.7 NNW 17 20 9 11 1012.6 1012.6 1.6
28/02:30am 8.4 2.7 4.8 78 1.6 N 24 30 13 16 1012.4 1012.4 1.6
28/02:00am 8.1 2.5 5.2 82 1.3 N 24 26 13 14 1012.4 1012.4 1.6
28/01:30am 8.0 1.9 4.6 79 1.5 N 26 30 14 16 1012.5 1012.5 1.6
28/01:00am 8.5 2.8 4.7 77 1.7 N 24 28 13 15 1012.7 1012.7 1.6
28/12:30am 8.8 3.4 4.3 73 2.0 N 22 26 12 14 1012.8 1012.8 1.6
28/12:00am 9.1 4.2 4.1 71 2.2 N 19 22 10 12 1012.8 1012.8 1.6
 
Date/Time
EST
Temp
°C
App
Temp
°C
Dew
Point
°C
Rel
Hum
%
Delta-T
°C
Wind Press
QNH
hPa
Press
MSL
hPa
Rain since
9am
mm
Dir  Spd
km/h
Gust
km/h
Spd
kts
Gust
kts
27/11:30pm 8.7 3.4 4.9 77 1.7 N 22 26 12 14 1012.8 1012.8 1.6
27/11:00pm 9.3 4.4 5.1 75 1.9 N 20 26 11 14 1012.9 1012.9 1.6
27/10:30pm 8.4 3.5 5.1 80 1.5 N 20 26 11 14 1013.2 1013.2 1.6
27/10:00pm 9.3 4.5 4.6 72 2.1 N 19 22 10 12 1013.2 1013.2 1.6
27/09:30pm 8.8 4.6 5.5 80 1.5 N 17 20 9 11 1013.3 1013.3 1.6
27/09:00pm 8.5 4.7 5.9 84 1.2 N 15 17 8 9 1013.6 1013.6 1.6
27/08:30pm 9.9 7.1 5.3 73 2.1 N 9 13 5 7 1013.5 1013.5 1.6
27/08:00pm 10.3 9.3 5.5 72 2.2 CALM 0 0 0 0 1013.4 1013.4 1.6
27/07:30pm 11.4 9.4 4.3 61 3.2 W 4 7 2 4 1013.3 1013.3 1.6
27/07:00pm 10.8 7.9 4.9 67 2.7 WSW 9 9 5 5 1013.3 1013.3 1.6
27/06:30pm 11.7 9.1 6.0 68 2.7 SW 9 11 5 6 1013.1 1013.1 1.6
27/06:00pm 13.0 9.8 5.3 59 3.6 WSW 11 15 6 8 1012.9 1012.9 1.6
27/05:30pm 13.3 9.4 5.2 58 3.8 WSW 15 19 8 10 1012.7 1012.7 1.6
27/05:00pm 14.2 11.2 5.8 57 4.0 WSW 11 19 6 10 1012.4 1012.4 1.6
27/04:30pm 14.4 9.6 4.5 51 4.6 WSW 19 26 10 14 1012.2 1012.2 1.6
27/04:00pm 13.9 8.7 5.7 57 3.9 WSW 22 30 12 16 1012.0 1012.0 1.6
27/03:30pm 14.2 9.1 7.6 64 3.3 SW 24 33 13 18 1011.8 1011.8 1.6
27/03:00pm 14.8 9.1 6.9 59 3.9 SW 26 37 14 20 1011.8 1011.8 1.6
27/02:30pm 12.9 8.8 8.5 74 2.2 SW 20 28 11 15 1011.9 1011.9 1.6
27/02:00pm 12.3 8.0 9.4 82 1.5 SW 22 32 12 17 1012.0 1012.0 1.6
27/01:30pm 11.2 6.3 9.8 91 0.7 WSW 26 41 14 22 1012.2 1012.2 1.2
27/01:21pm 11.8 6.9 9.8 87 1.0 WSW 26 41 14 22 1012.2 1012.2 0.6
27/01:00pm 13.1 8.9 9.6 79 1.8 SW 22 33 12 18 1012.0 1012.0 0.2
27/12:43pm 12.1 8.3 9.8 86 1.2 WSW 20 28 11 15 1012.2 1012.2 0.2
27/12:30pm 11.8 7.8 10.3 90 0.8 WSW 22 32 12 17 1012.3 1012.3 0.2
27/12:14pm 11.7 5.5 9.3 85 1.2 W 32 41 17 22 1012.1 1012.1 0.0
27/12:00pm 13.4 8.4 8.0 70 2.7 W 24 32 13 17 1012.0 1012.0 0.0
27/11:30am 13.4 10.3 7.1 65 3.1 WSW 13 19 7 10 1011.8 1011.8 0.0
27/11:00am 13.2 8.4 5.6 60 3.6 WSW 20 32 11 17 1011.9 1011.9 0.0
27/10:30am 12.9 8.3 6.4 64 3.1 W 20 26 11 14 1012.1 1012.1 0.0
27/10:00am 12.3 7.6 6.2 66 2.9 W 20 28 11 15 1012.1 1012.1 0.0
27/09:30am 11.2 5.7 6.1 71 2.4 W 24 32 13 17 1012.0 1012.0 0.0
27/09:00am 11.1 6.0 6.2 72 2.3 W 22 28 12 15 1011.8 1011.8 8.6
27/08:30am 10.2 5.3 5.2 71 2.3 W 20 26 11 14 1011.7 1011.7 8.6
27/08:00am 9.5 5.9 4.8 72 2.1 WNW 13 19 7 10 1011.4 1011.4 8.6
27/07:30am 8.0 3.9 4.1 76 1.7 N 15 20 8 11 1011.2 1011.2 8.6
27/07:00am 6.4 2.6 3.8 83 1.1 N 13 17 7 9 1010.9 1010.9 8.6
27/06:30am 5.4 1.1 3.2 86 0.9 NNW 15 17 8 9 1010.7 1010.7 8.6
27/06:00am 5.1 0.8 3.2 87 0.8 NNW 15 17 8 9 1010.3 1010.3 8.6
27/05:30am 4.8 0.5 3.1 89 0.7 NNW 15 17 8 9 1010.1 1010.1 8.6
27/05:00am 4.7 0.8 3.3 91 0.6 N 13 15 7 8 1010.0 1010.0 8.6
27/04:30am 5.4 2.3 3.5 87 0.8 NW 9 13 5 7 1009.8 1009.8 8.6
27/04:00am 5.7 1.9 4.1 89 0.7 NNW 13 15 7 8 1009.7 1009.7 8.6
27/03:30am 5.9 2.6 4.3 89 0.7 NW 11 13 6 7 1009.6 1009.6 8.6
27/03:00am 6.6 3.9 5.5 93 0.5 NW 9 11 5 6 1009.5 1009.5 8.6
27/02:30am 7.5 4.0 5.5 87 0.9 W 13 22 7 12 1009.5 1009.5 8.6
27/02:00am 7.6 4.8 5.1 84 1.1 WNW 9 19 5 10 1009.8 1009.8 8.4
27/01:30am 7.8 5.5 5.6 86 1.0 NW 7 11 4 6 1009.8 1009.8 8.4
27/01:00am 7.2 3.7 5.4 88 0.8 NW 13 15 7 8 1009.8 1009.8 8.4
27/12:30am 7.5 3.6 5.5 87 0.9 N 15 19 8 10 1009.9 1009.9 8.4
27/12:00am 7.4 3.5 5.2 86 1.0 NNW 15 19 8 10 1010.0 1010.0 8.4
 
Date/Time
EST
Temp
°C
App
Temp
°C
Dew
Point
°C
Rel
Hum
%
Delta-T
°C
Wind Press
QNH
hPa
Press
MSL
hPa
Rain since
9am
mm
Dir  Spd
km/h
Gust
km/h
Spd
kts
Gust
kts
26/11:30pm 7.4 3.5 5.2 86 1.0 NNW 15 17 8 9 1010.2 1010.2 8.4
26/11:00pm 7.8 4.1 4.6 80 1.4 NNW 13 17 7 9 1010.0 1010.0 8.4
26/10:30pm 7.9 5.0 6.4 90 0.7 NNE 11 17 6 9 1010.0 1010.0 8.4
26/10:00pm 7.7 5.3 6.8 94 0.4 NNE 9 15 5 8 1010.7 1010.7 8.0
26/09:30pm 7.5 4.2 6.6 94 0.4 W 13 19 7 10 1011.4 1011.4 7.2
26/09:00pm 7.5 1.4 6.4 93 0.5 SW 28 39 15 21 1011.0 1011.0 5.0
26/08:46pm 7.8 0.9 6.5 91 0.6 SW 32 43 17 23 1011.0 1011.0 3.8
26/08:38pm 8.6 4.2 6.7 88 0.9 SW 19 39 10 21 1011.0 1011.0 3.0
26/08:30pm 9.8 7.4 8.8 93 0.5 NW 11 15 6 8 1010.5 1010.5 3.0
26/08:00pm 9.7 7.7 8.7 93 0.5 NNE 9 13 5 7 1009.4 1009.4 2.8
26/07:30pm 10.4 7.9 8.2 86 1.1 NNE 11 17 6 9 1009.5 1009.5 2.8
26/07:00pm 10.5 7.3 8.3 86 1.1 NW 15 20 8 11 1010.1 1010.1 2.4
26/06:30pm 10.6 7.3 8.2 85 1.2 WNW 15 20 8 11 1009.8 1009.8 1.8
26/06:00pm 12.6 9.0 6.6 67 2.9 NW 15 24 8 13 1009.5 1009.5 0.2
26/05:30pm 14.3 10.8 5.5 55 4.2 N 13 15 7 8 1008.8 1008.9 0.2
26/05:00pm 14.7 10.6 4.2 49 4.9 N 15 22 8 12 1008.6 1008.7 0.2
26/04:30pm 15.0 10.0 3.4 45 5.3 NW 19 28 10 15 1008.6 1008.7 0.2
26/04:00pm 15.0 11.0 4.8 50 4.8 NNE 15 19 8 10 1008.9 1009.0 0.2
26/03:30pm 15.0 9.5 4.0 47 5.1 N 22 33 12 18 1009.1 1009.2 0.2
26/03:00pm 16.3 10.9 2.7 40 6.2 NNW 20 30 11 16 1009.5 1009.5 0.2
26/02:33pm 14.4 7.7 3.7 48 4.9 NW 28 46 15 25 1009.8 1009.8 0.2
26/02:30pm 14.4 7.5 4.6 51 4.6 NW 30 46 16 25 1009.8 1009.8 0.2
26/02:24pm 14.5 8.2 3.9 49 4.9 NW 26 46 14 25 1009.8 1009.8 0.2
26/02:00pm 15.8 11.2 3.5 43 5.7 NW 17 24 9 13 1009.8 1009.8 0.2
26/01:30pm 15.4 12.2 3.2 44 5.6 W 9 11 5 6 1010.0 1010.0 0.2
26/01:00pm 15.4 13.9 3.1 43 5.6 CALM 0 9 0 5 1010.4 1010.4 0.2
26/12:30pm 14.6 11.5 3.7 48 5.0 NW 9 13 5 7 1010.9 1010.9 0.2
26/12:00pm 14.4 11.5 4.8 52 4.5 WSW 9 15 5 8 1011.4 1011.4 0.2

Latest Capital City Observations: Canberra | Sydney | Melbourne | Brisbane | Adelaide | Perth | Hobart | Darwin

Other Formats:

Comma delimited format used in spreadsheet applications
http://www.bom.gov.au/fwo/IDV60901/IDV60901.94866.axf

JavaScript Object Notation format (JSON) in row-major order
http://www.bom.gov.au/fwo/IDV60901/IDV60901.94866.json